Weather History for Douglas, WY

Change the Weather History Date:

Monday, August 19, 2013

  Actual Average Record
Temperature  
Mean Temperature 75 °F 70 °F  
Max Temperature 97 °F 87 °F 97 °F (1986)
Min Temperature 53 °F 53 °F 41 °F (2002)
Degree Days  
Heating Degree Days 0 1  
Month to date heating degree days 0 10  
Since 1 June heating degree days 56 135  
Since 1 July heating degree days 0 25  
Cooling Degree Days 10 5  
Month to date cooling degree days 119 127  
Year to date cooling degree days 519 409  
Since 1 June cooling degree days 503 403  
Growing Degree Days 26 (Base 50)    
Moisture  
Dew Point 42 °F    
Average Humidity 41    
Maximum Humidity 72    
Minimum Humidity 9    
Precipitation  
Precipitation 0.00 in 0.03 in 0.14 in (2004)
Month to date precipitation 0.14 0.71  
Year to date precipitation 5.93 9.62  
Sea Level Pressure  
Sea Level Pressure 29.89 in    
Wind  
Wind Speed 5 mph (NW)    
Max Wind Speed 22 mph    
Max Gust Speed 26 mph    
Visibility 10 miles    
Events      
T = Trace of Precipitation, MM = Missing Value Source: NWS Daily Summary

Daily Weather History Graph

Daily Weather History Graph

Search for Another Location

Airport:

Trip Planner

Search our weather history database for the weather conditions in past years. The results will help you decide how hot, cold, wet, or windy it might be!

Date:

Astronomy

Aug. 19, 2013 Rise Set
Actual Time 6:12 AM MDT 7:56 PM MDT
Civil Twilight 5:42 AM MDT 8:26 PM MDT
Nautical Twilight 5:05 AM MDT 9:03 PM MDT
Astronomical Twilight 4:26 AM MDT 9:42 PM MDT
Moon 6:49 PM MDT (8/19) 4:33 AM MDT (8/19)
Length of Visible Light 14h 44m
Length of Day
13h 44m
Waxing Gibbous, 97% of the Moon is Illuminated
Aug 19
Waxing Gibbous
Aug 20
Full
Aug 28
Last Quarter
Sep 5
New
Sep 12
First Quarter

Hourly Weather History & Observations

Time (MDT) Temp. Dew Point Humidity Pressure Visibility Wind Dir Wind Speed Gust Speed Precip Events Conditions
12:53 AM 64.9 °F 48.9 °F 56% 29.91 in 10.0 mi SE 6.9 mph - N/A   Clear
1:53 AM 62.1 °F 48.0 °F 60% 29.91 in 10.0 mi Calm Calm - N/A   Clear
2:53 AM 59.0 °F 48.0 °F 67% 29.91 in 10.0 mi Calm Calm - N/A   Clear
3:53 AM 55.9 °F 46.9 °F 72% 29.93 in 10.0 mi WNW 4.6 mph - N/A   Clear
4:53 AM 57.0 °F 48.0 °F 72% 29.93 in 10.0 mi NW 3.5 mph - N/A   Clear
5:53 AM 57.0 °F 48.0 °F 72% 29.95 in 10.0 mi NW 4.6 mph - N/A   Clear
6:53 AM 57.0 °F 46.9 °F 69% 29.97 in 10.0 mi NNW 4.6 mph - N/A   Clear
7:53 AM 62.1 °F 48.0 °F 60% 29.98 in 10.0 mi Calm Calm - N/A   Clear
8:53 AM 68.0 °F 48.9 °F 50% 29.98 in 10.0 mi NW 5.8 mph - N/A   Clear
9:53 AM 75.9 °F 48.0 °F 37% 29.96 in 10.0 mi NW 6.9 mph - N/A   Clear
10:53 AM 82.9 °F 46.9 °F 28% 29.94 in 10.0 mi NW 5.8 mph - N/A   Clear
11:53 AM 89.1 °F 44.1 °F 21% 29.91 in 10.0 mi Variable 6.9 mph - N/A   Clear
12:53 PM 91.9 °F 43.0 °F 18% 29.89 in 10.0 mi Variable 4.6 mph - N/A   Clear
1:53 PM 93.9 °F 37.9 °F 14% 29.87 in 10.0 mi Variable 5.8 mph - N/A   Clear
2:53 PM 93.0 °F 35.1 °F 13% 29.87 in 10.0 mi Variable 5.8 mph - N/A   Clear
3:53 PM 96.1 °F 30.0 °F 10% 29.86 in 10.0 mi West 11.5 mph - N/A   Clear
4:53 PM 96.1 °F 32.0 °F 10% 29.83 in 9.0 mi Variable 4.6 mph - N/A   Clear
5:53 PM 93.9 °F 32.0 °F 11% 29.82 in 9.0 mi Calm Calm - N/A   Clear
6:53 PM 93.0 °F 26.1 °F 9% 29.81 in 10.0 mi WSW 4.6 mph - N/A   Clear
7:53 PM 82.0 °F 30.9 °F 16% 29.82 in 10.0 mi Calm Calm - N/A   Clear
8:53 PM 77.0 °F 39.0 °F 25% 29.83 in 10.0 mi SE 5.8 mph - N/A   Clear
9:53 PM 73.0 °F 43.0 °F 34% 29.83 in 10.0 mi ESE 9.2 mph - N/A   Clear
10:53 PM 71.1 °F 46.0 °F 41% 29.83 in 10.0 mi ESE 5.8 mph - N/A   Clear
11:53 PM 70.0 °F 46.9 °F 44% 29.81 in 10.0 mi East 8.1 mph - N/A   Clear